Location: Zagreb
(45.8000°N, 16.0000°E)
Time: 17:50:23
(UTC+01:00)

Envisat - Visible Passes

Search period start: 13 December 2019 00:00
Search period end: 23 December 2019 00:00
Orbit: 764 x 766 km, 98.1° (Epoch: 13 December)

Date Brightness Start Highest point End Pass type
(mag) Time Alt. Az. Time Alt. Az. Time Alt. Az.
13 Dec 6.0 05:31:37 10° NE 05:34:49 16° E 05:37:58 10° SE visible
13 Dec 3.8 16:48:06 10° ESE 16:52:23 28° ENE 16:56:41 10° N visible
13 Dec 4.3 18:26:28 10° SSW 18:31:14 41° W 18:36:03 10° NNW visible
14 Dec 3.8 06:32:31 10° NNE 06:37:33 58° E 06:42:32 10° S visible
14 Dec 3.0 17:49:17 10° SSE 17:54:22 86° WSW 17:59:29 10° NNW visible
14 Dec 6.2 19:32:38 10° WSW 19:34:09 11° W 19:35:39 10° WNW visible
15 Dec 5.2 05:56:14 10° NE 06:00:34 28° E 06:04:52 10° SSE visible
15 Dec 3.2 17:12:52 10° SE 17:17:42 46° ENE 17:22:32 10° N visible
15 Dec 5.2 18:52:49 10° SSW 18:56:55 24° W 19:01:03 10° NW visible
16 Dec 6.1 05:21:04 10° ENE 05:23:23 13° E 05:25:41 10° ESE visible
16 Dec 3.9 18:14:58 10° S 18:19:54 51° W 18:24:53 10° NNW visible
17 Dec 4.2 06:21:19 10° NNE 06:26:13 46° E 06:31:06 10° S visible
17 Dec 2.9 17:38:02 10° SSE 17:43:06 77° ENE 17:48:12 10° N visible
17 Dec 5.9 19:20:00 10° WSW 19:22:42 14° W 19:25:26 10° NW visible
18 Dec 5.6 05:45:14 10° NE 05:49:11 22° E 05:53:06 10° SE visible
18 Dec 3.5 17:01:51 10° SE 17:06:29 37° ENE 17:11:08 10° N visible
18 Dec 4.9 18:41:07 10° SSW 18:45:33 30° W 18:50:01 10° NNW visible
19 Dec 3.2 06:46:40 10° NNE 06:51:47 79° ESE 06:56:51 10° S visible
19 Dec 3.4 18:03:34 10° S 18:08:36 64° W 18:13:40 10° NNW visible
20 Dec 4.7 06:10:10 10° NNE 06:14:53 37° E 06:19:34 10° SSE visible
20 Dec 3.0 17:26:50 10° SSE 17:31:50 62° ENE 17:36:52 10° N visible
20 Dec 5.7 19:07:52 10° SW 19:11:17 18° W 19:14:44 10° NW visible
21 Dec 5.9 05:34:22 10° NE 05:37:47 18° E 05:41:11 10° SE visible
21 Dec 3.7 16:50:53 10° SE 16:55:16 30° ENE 16:59:41 10° N visible
21 Dec 4.5 18:29:30 10° SSW 18:34:11 37° W 18:38:55 10° NNW visible
22 Dec 3.6 06:35:25 10° NNE 06:40:29 64° E 06:45:31 10° S visible
22 Dec 3.1 17:52:13 10° S 17:57:18 80° WSW 18:02:25 10° NNW visible
22 Dec 6.3 19:36:45 10° W 19:37:08 10° W 19:37:31 10° W visible
